TimeEDT,TemperatureF,Dew PointF,Humidity,Sea Level PressureIn,VisibilityMPH,Wind Direction,Wind SpeedMPH,Gust SpeedMPH,PrecipitationIn,Events,Conditions,WindDirDegrees,DateUTC
12:13 AM,51.8,32.0,47,29.97,10.0,NW,11.5,21.9,N/A,,Clear,320,2014-04-24 04:13:00
12:33 AM,51.8,32.0,47,29.97,10.0,NW,9.2,-,N/A,,Clear,310,2014-04-24 04:33:00
12:53 AM,51.8,32.0,47,29.98,10.0,NW,11.5,18.4,N/A,,Clear,310,2014-04-24 04:53:00
1:13 AM,51.8,32.0,47,29.98,10.0,NW,11.5,17.3,N/A,,Clear,310,2014-04-24 05:13:00
1:33 AM,51.8,32.0,47,29.98,10.0,WNW,11.5,18.4,N/A,,Clear,300,2014-04-24 05:33:00
1:53 AM,51.8,32.0,47,29.98,10.0,NW,13.8,19.6,N/A,,Clear,310,2014-04-24 05:53:00
2:13 AM,51.8,32.0,47,29.97,10.0,NW,6.9,-,N/A,,Clear,310,2014-04-24 06:13:00
2:33 AM,51.8,32.0,47,29.98,10.0,NW,9.2,17.3,N/A,,Clear,310,2014-04-24 06:33:00
2:53 AM,51.8,32.0,47,29.98,10.0,NW,8.1,17.3,N/A,,Clear,310,2014-04-24 06:53:00
3:13 AM,50.0,32.0,50,29.98,10.0,NW,8.1,18.4,N/A,,Clear,310,2014-04-24 07:13:00
3:33 AM,50.0,32.0,50,29.99,10.0,NW,6.9,16.1,N/A,,Clear,310,2014-04-24 07:33:00
3:53 AM,51.8,32.0,47,29.99,10.0,WNW,13.8,19.6,N/A,,Clear,300,2014-04-24 07:53:00
4:13 AM,48.2,30.2,50,29.99,10.0,NW,8.1,18.4,N/A,,Clear,310,2014-04-24 08:13:00
4:33 AM,48.2,30.2,50,30.00,10.0,NW,13.8,17.3,N/A,,Clear,310,2014-04-24 08:33:00
4:53 AM,48.2,30.2,50,30.01,10.0,NW,10.4,18.4,N/A,,Clear,310,2014-04-24 08:53:00
5:13 AM,48.2,28.4,46,30.02,10.0,NW,15.0,21.9,N/A,,Clear,310,2014-04-24 09:13:00
5:33 AM,48.2,28.4,46,30.02,10.0,NW,8.1,16.1,N/A,,Clear,310,2014-04-24 09:33:00
5:53 AM,48.2,30.2,50,30.03,10.0,WNW,6.9,17.3,N/A,,Clear,300,2014-04-24 09:53:00
6:13 AM,48.2,32.0,54,30.04,10.0,NW,10.4,16.1,N/A,,Clear,310,2014-04-24 10:13:00
6:33 AM,48.2,30.2,50,30.05,10.0,NW,11.5,16.1,N/A,,Clear,320,2014-04-24 10:33:00
6:53 AM,48.2,28.4,46,30.05,10.0,NW,11.5,20.7,N/A,,Clear,320,2014-04-24 10:53:00
7:13 AM,48.2,28.4,46,30.06,10.0,NW,13.8,19.6,N/A,,Clear,320,2014-04-24 11:13:00
7:34 AM,48.2,28.4,46,30.07,10.0,NW,11.5,18.4,N/A,,Clear,320,2014-04-24 11:34:00
7:54 AM,50.0,28.4,43,30.08,10.0,NW,9.2,20.7,N/A,,Clear,320,2014-04-24 11:54:00
8:14 AM,51.8,28.4,41,30.08,10.0,NW,11.5,19.6,N/A,,Clear,320,2014-04-24 12:14:00
8:34 AM,51.8,28.4,41,30.08,10.0,NW,11.5,19.6,N/A,,Clear,310,2014-04-24 12:34:00
8:54 AM,51.8,28.4,41,30.09,10.0,NW,13.8,20.7,N/A,,Clear,310,2014-04-24 12:54:00
9:14 AM,51.8,23.0,33,30.09,10.0,NW,12.7,20.7,N/A,,Clear,320,2014-04-24 13:14:00
9:34 AM,51.8,23.0,33,30.09,10.0,NNW,13.8,18.4,N/A,,Clear,330,2014-04-24 13:34:00
9:54 AM,51.8,23.0,33,30.10,10.0,NNW,17.3,21.9,N/A,,Clear,340,2014-04-24 13:54:00
10:14 AM,51.8,23.0,33,30.10,10.0,NW,16.1,21.9,N/A,,Clear,320,2014-04-24 14:14:00
10:34 AM,53.6,24.8,33,30.10,10.0,NNW,15.0,20.7,N/A,,Clear,330,2014-04-24 14:34:00
10:54 AM,53.6,23.0,30,30.10,10.0,NW,12.7,17.3,N/A,,Clear,310,2014-04-24 14:54:00
11:14 AM,53.6,26.6,35,30.09,10.0,WNW,15.0,18.4,N/A,,Clear,290,2014-04-24 15:14:00
11:54 AM,55.4,24.8,31,30.09,10.0,NW,13.8,24.2,N/A,,Clear,310,2014-04-24 15:54:00
12:14 PM,55.4,23.0,29,30.08,10.0,WNW,16.1,21.9,N/A,,Clear,290,2014-04-24 16:14:00
12:34 PM,55.4,23.0,29,30.07,10.0,WNW,15.0,19.6,N/A,,Clear,300,2014-04-24 16:34:00
12:54 PM,55.4,21.2,26,30.07,10.0,WNW,13.8,23.0,N/A,,Clear,300,2014-04-24 16:54:00
1:14 PM,55.4,21.2,26,30.06,10.0,West,12.7,18.4,N/A,,Clear,280,2014-04-24 17:14:00
1:34 PM,59.0,21.2,23,30.05,10.0,WNW,11.5,21.9,N/A,,Clear,300,2014-04-24 17:34:00
1:54 PM,59.0,23.0,25,30.04,10.0,NW,10.4,18.4,N/A,,Clear,320,2014-04-24 17:54:00
2:14 PM,59.0,21.2,23,30.04,10.0,WNW,12.7,23.0,N/A,,Clear,290,2014-04-24 18:14:00
2:34 PM,59.0,21.2,23,30.04,10.0,WNW,13.8,18.4,N/A,,Clear,300,2014-04-24 18:34:00
2:54 PM,60.8,21.2,22,30.02,10.0,WNW,10.4,18.4,N/A,,Clear,290,2014-04-24 18:54:00
3:14 PM,60.8,21.2,22,30.02,10.0,WNW,12.7,18.4,N/A,,Clear,300,2014-04-24 19:14:00
3:34 PM,60.8,21.2,22,30.01,10.0,NNW,8.1,-,N/A,,Clear,330,2014-04-24 19:34:00
3:54 PM,60.8,19.4,20,30.01,10.0,NW,11.5,19.6,N/A,,Clear,310,2014-04-24 19:54:00
4:15 PM,60.8,19.4,20,30.00,10.0,NW,8.1,17.3,N/A,,Clear,320,2014-04-24 20:15:00
4:35 PM,60.8,19.4,20,29.99,10.0,WNW,8.1,-,N/A,,Clear,300,2014-04-24 20:35:00
4:55 PM,62.6,19.4,19,30.00,10.0,NW,6.9,-,N/A,,Clear,310,2014-04-24 20:55:00
5:15 PM,62.6,19.4,19,30.00,10.0,NW,10.4,16.1,N/A,,Clear,320,2014-04-24 21:15:00
5:35 PM,62.6,19.4,19,30.00,10.0,NW,8.1,-,N/A,,Clear,320,2014-04-24 21:35:00
5:55 PM,62.6,19.4,19,30.00,10.0,NW,3.5,-,N/A,,Clear,310,2014-04-24 21:55:00
6:15 PM,60.8,21.2,22,30.00,10.0,North,4.6,-,N/A,,Clear,350,2014-04-24 22:15:00
6:35 PM,60.8,23.0,23,30.00,10.0,NNW,3.5,-,N/A,,Clear,340,2014-04-24 22:35:00
6:55 PM,59.0,28.4,31,30.00,10.0,Calm,Calm,-,N/A,,Clear,0,2014-04-24 22:55:00
7:15 PM,55.4,32.0,41,30.01,10.0,Calm,Calm,-,N/A,,Clear,0,2014-04-24 23:15:00
7:35 PM,55.4,32.0,41,30.01,7.0,Calm,Calm,-,N/A,,Clear,0,2014-04-24 23:35:00
7:55 PM,53.6,32.0,44,30.02,10.0,Calm,Calm,-,N/A,,Clear,0,2014-04-24 23:55:00
8:15 PM,51.8,32.0,47,30.02,10.0,Calm,Calm,-,N/A,,Clear,0,2014-04-25 00:15:00
8:35 PM,51.8,33.8,50,30.02,10.0,Calm,Calm,-,N/A,,Clear,0,2014-04-25 00:35:00
8:55 PM,51.8,35.6,54,30.03,10.0,Calm,Calm,-,N/A,,Clear,0,2014-04-25 00:55:00
9:15 PM,50.0,33.8,54,30.03,10.0,Calm,Calm,-,N/A,,Clear,0,2014-04-25 01:15:00
9:35 PM,48.2,35.6,62,30.04,10.0,Calm,Calm,-,N/A,,Clear,0,2014-04-25 01:35:00
9:55 PM,46.4,33.8,62,30.04,10.0,Calm,Calm,-,N/A,,Clear,0,2014-04-25 01:55:00
10:15 PM,46.4,33.8,62,30.05,10.0,Calm,Calm,-,N/A,,Clear,0,2014-04-25 02:15:00
10:35 PM,46.4,35.6,66,30.04,10.0,Calm,Calm,-,N/A,,Clear,0,2014-04-25 02:35:00
10:55 PM,44.6,35.6,71,30.04,10.0,Calm,Calm,-,N/A,,Clear,0,2014-04-25 02:55:00
11:15 PM,44.6,33.8,66,30.04,10.0,Calm,Calm,-,N/A,,Clear,0,2014-04-25 03:15:00
11:35 PM,42.8,33.8,70,30.04,10.0,Calm,Calm,-,N/A,,Clear,0,2014-04-25 03:35:00
11:55 PM,42.8,33.8,70,30.04,10.0,Calm,Calm,-,N/A,,Clear,0,2014-04-25 03:55:00